Time,TemperatureF,DewpointF,PressureIn,WindDirection,WindDirectionDegrees,WindSpeedMPH,WindSpeedGustMPH,Humidity,HourlyPrecipIn,Conditions,Clouds,dailyrainin,SolarRadiationWatts/m^2,SoftwareType,DateUTC
2013-04-12 00:03:00,76.9,74.0,29.88,SSE,148,1.0,-999.0,90,-99.99,,,0.00,0,weatherlink.com 1.10,2013-04-12 04:03:00,
2013-04-12 00:18:00,77.0,74.0,29.88,SSE,153,1.0,-999.0,91,-99.99,,,0.00,0,weatherlink.com 1.10,2013-04-12 04:18:00,
2013-04-12 00:33:00,77.2,75.0,29.88,SSE,148,0.0,-999.0,91,-99.99,,,0.00,0,weatherlink.com 1.10,2013-04-12 04:33:00,
2013-04-12 00:48:00,77.1,74.0,29.89,SSE,162,0.0,-999.0,91,-99.99,,,0.00,0,weatherlink.com 1.10,2013-04-12 04:48:00,
2013-04-12 01:03:00,77.1,74.0,29.89,SE,146,0.0,-999.0,91,-99.99,,,0.00,0,weatherlink.com 1.10,2013-04-12 05:03:00,
2013-04-12 01:18:00,77.1,74.0,29.89,SSE,153,0.0,-999.0,91,-99.99,,,0.00,0,weatherlink.com 1.10,2013-04-12 05:18:00,
2013-04-12 01:33:00,77.2,75.0,29.90,SSE,159,0.0,-999.0,91,-99.99,,,0.00,0,weatherlink.com 1.10,2013-04-12 05:33:00,
2013-04-12 01:48:00,77.3,75.0,29.90,ESE,115,0.0,-999.0,91,-99.99,,,0.00,0,weatherlink.com 1.10,2013-04-12 05:48:00,
2013-04-12 02:03:00,77.3,75.0,29.90,WSW,246,0.0,-999.0,91,-99.99,,,0.00,0,weatherlink.com 1.10,2013-04-12 06:03:00,
2013-04-12 02:18:00,77.2,75.0,29.90,SSW,208,0.0,-999.0,91,-99.99,,,0.00,0,weatherlink.com 1.10,2013-04-12 06:18:00,
2013-04-12 02:33:00,77.2,75.0,29.91,South,175,0.0,-999.0,91,-99.99,,,0.00,0,weatherlink.com 1.10,2013-04-12 06:33:00,
2013-04-12 02:48:00,77.1,74.0,29.91,SSE,163,2.0,-999.0,91,-99.99,,,0.00,0,weatherlink.com 1.10,2013-04-12 06:48:00,
2013-04-12 03:03:00,77.1,74.0,29.91,SE,138,0.0,-999.0,91,-99.99,,,0.00,0,weatherlink.com 1.10,2013-04-12 07:03:00,
2013-04-12 03:18:00,77.1,74.0,29.90,SSE,165,0.0,-999.0,91,-99.99,,,0.00,0,weatherlink.com 1.10,2013-04-12 07:18:00,
2013-04-12 03:33:00,77.1,75.0,29.90,SW,223,1.0,-999.0,92,-99.99,,,0.00,0,weatherlink.com 1.10,2013-04-12 07:33:00,
2013-04-12 03:48:00,76.9,75.0,29.90,SSW,199,3.0,-999.0,92,-99.99,,,0.00,0,weatherlink.com 1.10,2013-04-12 07:48:00,
2013-04-12 04:03:00,76.9,75.0,29.91,SE,144,4.0,-999.0,92,-99.99,,,0.00,0,weatherlink.com 1.10,2013-04-12 08:03:00,
2013-04-12 04:18:00,76.9,75.0,29.91,SW,216,0.0,-999.0,92,-99.99,,,0.00,0,weatherlink.com 1.10,2013-04-12 08:18:00,
2013-04-12 04:33:00,76.9,75.0,29.91,SE,146,0.0,-999.0,92,-99.99,,,0.00,0,weatherlink.com 1.10,2013-04-12 08:33:00,
2013-04-12 04:48:00,76.8,74.0,29.91,SSE,160,0.0,-999.0,92,-99.99,,,0.00,0,weatherlink.com 1.10,2013-04-12 08:48:00,
2013-04-12 05:03:00,76.9,75.0,29.91,SSW,194,0.0,-999.0,92,-99.99,,,0.00,0,weatherlink.com 1.10,2013-04-12 09:03:00,
2013-04-12 05:18:00,76.8,74.0,29.91,South,169,0.0,-999.0,92,-99.99,,,0.00,0,weatherlink.com 1.10,2013-04-12 09:18:00,
2013-04-12 05:33:00,76.7,74.0,29.91,SW,234,0.0,-999.0,92,-99.99,,,0.00,0,weatherlink.com 1.10,2013-04-12 09:33:00,
2013-04-12 05:48:00,76.5,74.0,29.89,SW,215,0.0,-999.0,93,-99.99,,,0.00,0,weatherlink.com 1.10,2013-04-12 09:48:00,
2013-04-12 06:03:00,76.4,74.0,29.89,SSW,204,0.0,-999.0,93,-99.99,,,0.00,0,weatherlink.com 1.10,2013-04-12 10:03:00,
2013-04-12 06:18:00,76.3,74.0,29.89,SSE,150,0.0,-999.0,93,-99.99,,,0.00,0,weatherlink.com 1.10,2013-04-12 10:18:00,
2013-04-12 06:33:00,76.2,74.0,29.89,WSW,245,0.0,-999.0,94,-99.99,,,0.00,0,weatherlink.com 1.10,2013-04-12 10:33:00,
2013-04-12 06:48:00,76.2,74.0,29.90,South,190,2.0,-999.0,94,-99.99,,,0.00,0,weatherlink.com 1.10,2013-04-12 10:48:00,
2013-04-12 07:03:00,76.2,74.0,29.90,SE,132,0.0,-999.0,94,-99.99,,,0.00,0,weatherlink.com 1.10,2013-04-12 11:03:00,
2013-04-12 07:18:00,76.1,74.0,29.91,East,101,0.0,-999.0,94,-99.99,,,0.00,12,weatherlink.com 1.10,2013-04-12 11:18:00,
2013-04-12 07:33:00,76.2,74.0,29.91,ESE,121,2.0,-999.0,94,-99.99,,,0.00,26,weatherlink.com 1.10,2013-04-12 11:33:00,
2013-04-12 07:49:00,76.7,75.0,29.91,SE,142,0.0,-999.0,95,-99.99,,,0.00,56,weatherlink.com 1.10,2013-04-12 11:49:00,
2013-04-12 08:03:00,77.4,76.0,29.92,SSW,193,0.0,-999.0,94,-99.99,,,0.00,125,weatherlink.com 1.10,2013-04-12 12:03:00,
2013-04-12 08:18:00,78.3,76.0,29.92,ESE,117,0.0,-999.0,93,-99.99,,,0.00,134,weatherlink.com 1.10,2013-04-12 12:18:00,
2013-04-12 08:34:00,79.4,76.0,29.93,SW,221,0.0,-999.0,90,-99.99,,,0.00,243,weatherlink.com 1.10,2013-04-12 12:34:00,
2013-04-12 08:49:00,80.3,77.0,29.93,WSW,246,0.0,-999.0,88,-99.99,,,0.00,127,weatherlink.com 1.10,2013-04-12 12:49:00,
2013-04-12 09:03:00,81.2,77.0,29.93,South,175,9.0,-999.0,86,-99.99,,,0.00,130,weatherlink.com 1.10,2013-04-12 13:03:00,
2013-04-12 09:18:00,81.8,77.0,29.94,South,178,0.0,-999.0,85,-99.99,,,0.00,155,weatherlink.com 1.10,2013-04-12 13:18:00,
2013-04-12 09:33:00,82.5,77.0,29.94,WSW,241,0.0,-999.0,83,-99.99,,,0.00,211,weatherlink.com 1.10,2013-04-12 13:33:00,
2013-04-12 09:48:00,82.0,76.0,29.94,SE,142,0.0,-999.0,83,-99.99,,,0.00,547,weatherlink.com 1.10,2013-04-12 13:48:00,
2013-04-12 10:03:00,81.9,76.0,29.93,South,181,0.0,-999.0,83,-99.99,,,0.00,601,weatherlink.com 1.10,2013-04-12 14:03:00,
2013-04-12 10:18:00,83.8,77.0,29.94,SE,132,2.0,-999.0,80,-99.99,,,0.00,592,weatherlink.com 1.10,2013-04-12 14:18:00,
2013-04-12 10:33:00,84.9,78.0,29.94,WSW,258,0.0,-999.0,79,-99.99,,,0.00,673,weatherlink.com 1.10,2013-04-12 14:33:00,
2013-04-12 10:48:00,85.5,78.0,29.95,South,186,0.0,-999.0,78,-99.99,,,0.00,694,weatherlink.com 1.10,2013-04-12 14:48:00,
2013-04-12 11:03:00,85.3,77.0,29.95,SSW,201,0.0,-999.0,77,-99.99,,,0.00,765,weatherlink.com 1.10,2013-04-12 15:03:00,
2013-04-12 11:18:00,85.8,77.0,29.95,SW,234,1.0,-999.0,76,-99.99,,,0.00,807,weatherlink.com 1.10,2013-04-12 15:18:00,
2013-04-12 11:33:00,86.3,78.0,29.94,ENE,58,2.0,-999.0,75,-99.99,,,0.00,819,weatherlink.com 1.10,2013-04-12 15:33:00,
2013-04-12 11:49:00,86.1,77.0,29.94,SW,219,0.0,-999.0,75,-99.99,,,0.00,861,weatherlink.com 1.10,2013-04-12 15:49:00,
2013-04-12 12:04:00,86.8,77.0,29.94,South,182,3.0,-999.0,73,-99.99,,,0.00,858,weatherlink.com 1.10,2013-04-12 16:04:00,
2013-04-12 12:18:00,87.0,78.0,29.94,South,180,0.0,-999.0,75,-99.99,,,0.00,884,weatherlink.com 1.10,2013-04-12 16:18:00,
2013-04-12 12:34:00,87.3,78.0,29.95,WSW,240,0.0,-999.0,74,-99.99,,,0.00,905,weatherlink.com 1.10,2013-04-12 16:34:00,
2013-04-12 12:48:00,87.4,78.0,29.94,WSW,256,0.0,-999.0,73,-99.99,,,0.00,926,weatherlink.com 1.10,2013-04-12 16:48:00,
2013-04-12 13:04:00,87.6,78.0,29.94,SW,216,4.0,-999.0,73,-99.99,,,0.00,911,weatherlink.com 1.10,2013-04-12 17:04:00,
2013-04-12 13:19:00,87.5,78.0,29.94,South,181,2.0,-999.0,73,-99.99,,,0.00,914,weatherlink.com 1.10,2013-04-12 17:19:00,
2013-04-12 13:34:00,87.5,77.0,29.93,South,187,0.0,-999.0,72,-99.99,,,0.00,911,weatherlink.com 1.10,2013-04-12 17:34:00,
2013-04-12 13:49:00,87.5,77.0,29.92,SW,231,2.0,-999.0,72,-99.99,,,0.00,911,weatherlink.com 1.10,2013-04-12 17:49:00,
2013-04-12 14:19:00,87.5,78.0,29.93,West,265,0.0,-999.0,73,-99.99,,,0.00,891,weatherlink.com 1.10,2013-04-12 18:19:00,
2013-04-12 15:34:00,88.2,77.0,29.90,WSW,248,0.0,-999.0,69,-99.99,,,0.00,786,weatherlink.com 1.10,2013-04-12 19:34:00,
2013-04-12 15:49:00,88.2,77.0,29.90,WSW,246,1.0,-999.0,69,-99.99,,,0.00,742,weatherlink.com 1.10,2013-04-12 19:49:00,
2013-04-12 16:04:00,87.5,77.0,29.90,SW,233,3.0,-999.0,71,-99.99,,,0.00,698,weatherlink.com 1.10,2013-04-12 20:04:00,
2013-04-12 16:19:00,86.2,77.0,29.90,SW,217,1.0,-999.0,73,-99.99,,,0.00,656,weatherlink.com 1.10,2013-04-12 20:19:00,
2013-04-12 16:34:00,86.6,77.0,29.90,West,262,1.0,-999.0,73,-99.99,,,0.00,603,weatherlink.com 1.10,2013-04-12 20:34:00,
2013-04-12 16:49:00,86.5,77.0,29.90,WSW,240,3.0,-999.0,73,-99.99,,,0.00,566,weatherlink.com 1.10,2013-04-12 20:49:00,
2013-04-12 17:04:00,87.3,77.0,29.90,SSW,196,0.0,-999.0,72,-99.99,,,0.00,519,weatherlink.com 1.10,2013-04-12 21:04:00,
2013-04-12 17:19:00,87.3,77.0,29.91,SW,222,0.0,-999.0,71,-99.99,,,0.00,473,weatherlink.com 1.10,2013-04-12 21:19:00,
2013-04-12 17:34:00,86.6,77.0,29.90,SW,217,0.0,-999.0,72,-99.99,,,0.00,380,weatherlink.com 1.10,2013-04-12 21:34:00,
2013-04-12 17:49:00,85.6,76.0,29.90,SW,236,2.0,-999.0,74,-99.99,,,0.00,330,weatherlink.com 1.10,2013-04-12 21:49:00,
2013-04-12 18:04:00,85.3,77.0,29.90,SSW,192,0.0,-999.0,75,-99.99,,,0.00,258,weatherlink.com 1.10,2013-04-12 22:04:00,
2013-04-12 18:19:00,84.7,76.0,29.90,SW,226,0.0,-999.0,75,-99.99,,,0.00,202,weatherlink.com 1.10,2013-04-12 22:19:00,
2013-04-12 18:34:00,83.8,75.0,29.90,SW,227,0.0,-999.0,75,-99.99,,,0.00,107,weatherlink.com 1.10,2013-04-12 22:34:00,
2013-04-12 18:49:00,82.7,76.0,29.91,SW,227,3.0,-999.0,79,-99.99,,,0.00,98,weatherlink.com 1.10,2013-04-12 22:49:00,
2013-04-12 19:04:00,81.4,75.0,29.91,WSW,240,0.0,-999.0,80,-99.99,,,0.00,62,weatherlink.com 1.10,2013-04-12 23:04:00,
2013-04-12 19:19:00,80.4,75.0,29.92,WSW,237,0.0,-999.0,83,-99.99,,,0.00,32,weatherlink.com 1.10,2013-04-12 23:19:00,
2013-04-12 19:34:00,79.6,74.0,29.92,WSW,244,0.0,-999.0,84,-99.99,,,0.00,16,weatherlink.com 1.10,2013-04-12 23:34:00,
2013-04-12 19:49:00,79.0,75.0,29.92,SSW,206,0.0,-999.0,86,-99.99,,,0.00,0,weatherlink.com 1.10,2013-04-12 23:49:00,
2013-04-12 20:04:00,78.5,74.0,29.92,SSW,206,0.0,-999.0,87,-99.99,,,0.00,0,weatherlink.com 1.10,2013-04-13 00:04:00,
2013-04-12 20:19:00,77.9,74.0,29.92,SSW,206,0.0,-999.0,88,-99.99,,,0.00,0,weatherlink.com 1.10,2013-04-13 00:19:00,
2013-04-12 20:34:00,77.6,74.0,29.93,SSW,206,0.0,-999.0,89,-99.99,,,0.00,0,weatherlink.com 1.10,2013-04-13 00:34:00,
2013-04-12 20:49:00,77.4,74.0,29.94,SSW,206,1.0,-999.0,90,-99.99,,,0.00,0,weatherlink.com 1.10,2013-04-13 00:49:00,
2013-04-12 21:04:00,77.3,74.0,29.95,SSW,206,0.0,-999.0,90,-99.99,,,0.00,0,weatherlink.com 1.10,2013-04-13 01:04:00,
2013-04-12 21:19:00,77.0,74.0,29.95,SSW,208,0.0,-999.0,91,-99.99,,,0.00,0,weatherlink.com 1.10,2013-04-13 01:19:00,
2013-04-12 21:34:00,76.9,74.0,29.95,SSW,208,0.0,-999.0,91,-99.99,,,0.00,0,weatherlink.com 1.10,2013-04-13 01:34:00,
2013-04-12 21:49:00,76.8,74.0,29.95,SSW,208,0.0,-999.0,91,-99.99,,,0.00,0,weatherlink.com 1.10,2013-04-13 01:49:00,
2013-04-12 22:04:00,76.7,74.0,29.95,SSW,208,0.0,-999.0,91,-99.99,,,0.00,0,weatherlink.com 1.10,2013-04-13 02:04:00,
2013-04-12 22:19:00,76.7,74.0,29.95,SW,214,0.0,-999.0,91,-99.99,,,0.00,0,weatherlink.com 1.10,2013-04-13 02:19:00,
2013-04-12 22:34:00,76.5,74.0,29.96,SW,214,0.0,-999.0,92,-99.99,,,0.00,0,weatherlink.com 1.10,2013-04-13 02:34:00,
2013-04-12 22:49:00,76.4,74.0,29.96,SW,214,0.0,-999.0,92,-99.99,,,0.00,0,weatherlink.com 1.10,2013-04-13 02:49:00,
2013-04-12 23:04:00,76.4,74.0,29.95,SW,214,0.0,-999.0,92,-99.99,,,0.00,0,weatherlink.com 1.10,2013-04-13 03:04:00,
2013-04-12 23:19:00,76.3,74.0,29.96,SW,215,0.0,-999.0,93,-99.99,,,0.00,0,weatherlink.com 1.10,2013-04-13 03:19:00,
2013-04-12 23:34:00,76.4,74.0,29.95,SW,223,0.0,-999.0,93,-99.99,,,0.00,0,weatherlink.com 1.10,2013-04-13 03:34:00,
2013-04-12 23:49:00,76.5,74.0,29.96,SW,223,0.0,-999.0,93,-99.99,,,0.00,0,weatherlink.com 1.10,2013-04-13 03:49:00,